sat.trackr.live / text

‹ back to catalog

TERRESTAR-1

NORAD 35496 · 2009-035A

PAYLOAD ACTIVE UNKNOWN

§ Identity

Operator
Country
US
Launch date
2009-07-01
Launch site
FRGUI
Launch vehicle
Mass (kg)
RCS (m²)
17.30

Purposes: comms

External: N2YO · Heavens-Above · Gunter

§ Orbital elements

Epoch: 2026-09-19T21:34:32.328192Z

Period
1,436.07 min
Inclination
5.2295°
Eccentricity
0.0002285
Mean motion
1.00273820 rev/d
Perigee alt
35,776.4 km
Apogee alt
35,795.7 km
Semi-major
42,164.2 km
B*
0.0000e+0
RAAN
48.6570°
Arg perigee
110.9416°
Mean anomaly
51.8616°
Rev number
6,308

§ Raw data

TERRESTAR-11 35496U 09035A   26262.89898528 -.00000059  00000+0  00000+0 0  99922 35496   5.2295  48.6570 0002285 110.9416  51.8616  1.00273820 63088

JSON: /api/v1/satellites/35496 · /tle

For live sub-satellite position, see the globe view (requires WebGL).

§ Visibility from observer

Set your observer location to see the next 7 days of passes ≥ 10°. The values pass through the URL so the page stays shareable.

No JS? Fill the form by hand. The geolocation button needs JavaScript.